Regional Weather Roundup
Issued by NWS

Home | Current Version | Previous Version | Text Only | Print | Product List | Glossary Off
Versions: 1 2 3 4 5 6 7 8 9 10 11 12 13 14 15 16 17 18 19 20 21 22 23 24 25 26 27 28 29 30 31 32 33 34 35 36 37 38 39 40 41 42 43 44 45 46 47 48 49 50

557
ASUS45 KBOU 090907
RWRCO

WEATHER ROUNDUP FOR COLORADO
NATIONAL WEATHER SERVICE DENVER/BOULDER CO
200 AM MST TUE FEB 09 2016

NOTE: "FAIR" INDICATES FEW OR NO CLOUDS BELOW 12000 FEET WITH NO
SIGNIFICANT WEATHER AND/OR OBSTRUCTIONS TO VISIBILITY.

COZ001>005-013-030-031-091000-
...NORTHWEST COLORADO...

CITY           SKY/WX    TMP DP  RH WIND       PRES   REMARKS
CRAIG          CLOUDY    -4  -7  87 SW3       30.54S
HAYDEN         CLOUDY    18  10  73 E13       30.51R WCI   4
MEEKER         CLOUDY    11   7  84 VRB5      30.52F WCI   3
MOUNT WERNER   NOT AVBL
STEAMBOAT SPGS CLOUDY    11   9  92 CALM      30.52S
WALDEN         CLOUDY    10   5  79 SE8       30.48R WCI  -1
$$

COZ006>008-011-091000-
...WEST CENTRAL VALLEYS...

CITY           SKY/WX    TMP DP  RH WIND       PRES   REMARKS
GRAND JUNCTION CLOUDY    19  17  92 E8        30.53R WCI   9
MONTROSE       CLOUDY    20  14  77 S10       30.53F WCI   9
EAGLE          CLOUDY    12  12 100 E7        30.57S WCI   2
RIFLE          CLOUDY    15  10  80 E3        30.54F
DELTA          CLOUDY    24  19  83 CALM      30.54S
NUCLA          CLOUDY    27  18  69 E6        30.53R WCI  20
$$

COZ017>023-064>068-091000-
...SOUTHWEST COLORADO...

CITY           SKY/WX    TMP DP  RH WIND       PRES   REMARKS
DURANGO        CLOUDY    17  13  84 N3        30.42S
CORTEZ         CLOUDY    26  17  68 E8        30.43F WCI  18
PAGOSA SPRINGS CLOUDY    19  18  95 CALM      30.42S
TELLURIDE      CLOUDY    26   6  41 E5        30.50S WCI  20
WOLF CREEK PAS CLOUDY    28  -8  20 N12G18    30.53S WCI  18
$$

COZ009-010-012-014-032>034-037-058>063-091000-
...CENTRAL COLORADO...

CITY           SKY/WX    TMP DP  RH WIND       PRES   REMARKS
ASPEN          CLOUDY    13   8  81 CALM      30.51R
BUENA VISTA    CLOUDY    31  15  52 NW15G22   30.40R WCI  20
COPPER MTN     NOT AVBL
BERTHOUD PASS  FAIR      10   0  61 N18G28    30.45R WCI  -8
COTTONWOOD PAS CLOUDY    34   1  25 W15G28    30.41S WCI  24
GUNNISON       CLOUDY    -2 -15  55 CALM      30.56S
KREMMLING      CLOUDY     0  -4  85 CALM      30.55R
LEADVILLE      CLOUDY    13   9  84 NE9       30.45F WCI   1
MONARCH PASS   CLOUDY    21   9  58 MISG      30.57R
SALIDA         NOT AVBL
SUNLIGHT       CLOUDY    23  18  80 W8          N/A  WCI  14
WILKERSON PASS CLOUDY    27  -6  24 N16G30    30.43S WCI  14
$$

COZ069>075-091000-
...SAN LUIS VALLEY/SANGRE DE CRISTO MOUNTAINS...

CITY           SKY/WX    TMP DP  RH WIND       PRES   REMARKS
ALAMOSA        CLOUDY    18  13  80 SW6       30.41S WCI  10
LA VETA PASS   CLOUDY    23  14  68 SW5       30.40F WCI  17
SAGUACHE       CLOUDY    32  18  55 NW20G28   30.42S WCI  20
$$

COZ035-036-038>040-091000-
...NORTHERN COLORADO FRONT RANGE...

CITY           SKY/WX    TMP DP  RH WIND       PRES   REMARKS
DENVER INTL AP CLOUDY    26  18  71 S16       30.28S WCI  14
DMNS CITY PARK   N/A     30  21  67 SE6       30.31R WCI  24
AURORA         PTCLDY    30  21  70 S10       30.29F WCI  21
FRONT RANGE AP   N/A     27  19  74 S10       30.29F WCI  17
ERIE MUNI ARPT CLOUDY    22  20  91 CALM      30.30R
BOULDER MUN AP CLOUDY    32  23  69 CALM      30.29R
CENTENNIAL     CLOUDY    29  20  69 S12       30.29F WCI  19
BROOMFIELD     CLOUDY    34  21  60 SW7       30.30R WCI  28
FORT COLLINS   CLOUDY    21  18  86 CALM      30.30R
LONGMONT       CLOUDY    22  18  83 SW6       30.32R WCI  15
$$

COZ041-046-047-076>085-087-088-091000-
...PIKES PEAK/PALMER DIVIDE AND SOUTHERN FOOTHILLS...

CITY           SKY/WX    TMP DP  RH WIND       PRES   REMARKS
COLO. SPRINGS  CLOUDY    20  13  74 NE10      30.34R WCI   9
A. F. ACADEMY  CLOUDY    15  11  84 N8        30.33R WCI   4
SCHRIEVER AFB  NOT AVBL
ELLICOTT       NOT AVBL
FALCON         NOT AVBL
FORT CARSON    CLOUDY    26  20  78 NW15      30.32R WCI  13
LIMON          CLOUDY    22  16  78 NW14      30.30S WCI   9
MONUMENT HILL  CLOUDY    23  16  74 S13       30.33S WCI  11
TRINIDAD       CLOUDY    28  19  69 SW10      30.33F WCI  19
$$

COZ042>045-048>051-090-091-091000-
...NORTHEAST COLORADO...

CITY           SKY/WX    TMP DP  RH WIND       PRES   REMARKS
GREELEY ARPT   CLOUDY    19  16  86 NW6       30.30S WCI  11
AKRON          CLEAR     32  23  69 W15       30.24S WCI  22
BURLINGTON     CLEAR     29  21  72 NW12      30.24S WCI  19
WRAY           CLOUDY    35  27  70 NW16      30.23S WCI  25
STERLING       CLEAR     34  27  75 NW13      30.25R WCI  25
HOLYOKE        CLOUDY    37  28  70 NW15      30.21S
FORT MORGAN    CLEAR     24  19  83 W10       30.28S WCI  13
$$

COZ086-089-092>099-091000-
...SOUTHEAST COLORADO...

CITY           SKY/WX    TMP DP  RH WIND       PRES   REMARKS
PUEBLO         CLOUDY    27  21  78 CALM      30.34S
LA JUNTA       CLEAR     30  23  75 W13       30.32F WCI  20
LAMAR          CLEAR     31  26  82 W10       30.29S WCI  22
SPRINGFIELD      N/A     32  23  69 W13       30.31F WCI  22
$$




USA.gov is the U.S. government's official web portal to all federal, state and local government web resources and services.